| time (UTC) | temp F | wind direction | speed MPH | gust MPH | rain 1hr in | rain 24hr in | rain mn in | humidity % | barometer mb |
| 20260510000017 | 62 | 144 | 3.0 | 6.0 | 0.00 | 0.19 | 0.19 | 70 | 1009.1 |
| 20260509235007 | 62 | 154 | 2.0 | 6.0 | 0.00 | 0.19 | 0.19 | 69 | 1009.2 |
| 20260509234520 | 63 | 139 | 2.0 | 6.0 | 0.00 | 0.19 | 0.19 | 69 | 1009.1 |
| 20260509233022 | 63 | 156 | 3.0 | 6.0 | 0.00 | 0.19 | 0.19 | 67 | 1009.2 |
| 20260509231007 | 64 | 151 | 2.0 | 5.0 | 0.00 | 0.19 | 0.19 | 66 | 1009.1 |
| 20260509230012 | 65 | 130 | 0.0 | 5.0 | 0.00 | 0.19 | 0.19 | 65 | 1009.1 |
| 20260509225003 | 65 | 172 | 2.0 | 5.0 | 0.00 | 0.19 | 0.19 | 65 | 1009.1 |
| 20260509224504 | 65 | 191 | 1.0 | 5.0 | 0.00 | 0.19 | 0.19 | 66 | 1009.1 |
| 20260509224003 | 65 | 132 | 3.0 | 5.0 | 0.00 | 0.19 | 0.19 | 65 | 1009.2 |
| 20260509223503 | 65 | 117 | 1.0 | 5.0 | 0.00 | 0.19 | 0.19 | 65 | 1009.2 |
| 20260509223005 | 65 | 215 | 2.0 | 4.0 | 0.00 | 0.19 | 0.19 | 66 | 1009.2 |
| 20260509222004 | 64 | 293 | 1.0 | 5.0 | 0.00 | 0.19 | 0.19 | 67 | 1009.2 |
| 20260509221526 | 64 | 231 | 3.0 | 5.0 | 0.00 | 0.19 | 0.19 | 66 | 1009.2 |
| 20260509220009 | 64 | 270 | 3.0 | 5.0 | 0.00 | 0.19 | 0.19 | 66 | 1009.2 |
| 20260509214515 | 64 | 117 | 2.0 | 5.0 | 0.00 | 0.19 | 0.19 | 66 | 1009.4 |
| 20260509214006 | 64 | 174 | 2.0 | 5.0 | 0.00 | 0.19 | 0.19 | 66 | 1009.4 |
| 20260509213006 | 63 | 167 | 3.0 | 6.0 | 0.00 | 0.19 | 0.19 | 67 | 1009.5 |
| 20260509212502 | 64 | 148 | 4.0 | 6.0 | 0.00 | 0.19 | 0.19 | 67 | 1009.5 |
| 20260509212007 | 63 | 88 | 2.0 | 6.0 | 0.00 | 0.19 | 0.19 | 67 | 1009.5 |
| 20260509211513 | 64 | 171 | 3.0 | 5.0 | 0.00 | 0.19 | 0.19 | 67 | 1009.5 |
| 20260509210008 | 62 | 118 | 1.0 | 4.0 | 0.00 | 0.19 | 0.19 | 74 | 1009.6 |
| 20260509204514 | 60 | 90 | 1.0 | 2.0 | 0.00 | 0.19 | 0.19 | 76 | 1010.0 |
| 20260509204007 | 60 | 56 | 0.0 | 2.0 | 0.00 | 0.19 | 0.19 | 77 | 1010.1 |
| 20260509203018 | 59 | 53 | 0.0 | 3.0 | 0.00 | 0.19 | 0.19 | 77 | 1010.2 |
| 20260509201506 | 59 | 52 | 1.0 | 4.0 | 0.00 | 0.19 | 0.19 | 78 | 1010.0 |
| 20260509201001 | 59 | 37 | 2.0 | 4.0 | 0.00 | 0.19 | 0.19 | 78 | 1009.8 |
| 20260509200503 | 59 | 64 | 2.0 | 4.0 | 0.00 | 0.19 | 0.19 | 79 | 1009.6 |
| 20260509200006 | 59 | 94 | 2.0 | 4.0 | 0.00 | 0.19 | 0.19 | 79 | 1009.6 |
| 20260509195004 | 59 | 34 | 3.0 | 4.0 | 0.00 | 0.19 | 0.19 | 77 | 1010.0 |
| 20260509194518 | 59 | 77 | 2.0 | 4.0 | 0.00 | 0.19 | 0.19 | 75 | 1010.3 |
| 20260509193014 | 61 | 41 | 1.0 | 2.0 | 0.00 | 0.19 | 0.19 | 74 | 1010.1 |
| 20260509192009 | 60 | 262 | 0.0 | 3.0 | 0.00 | 0.19 | 0.19 | 74 | 1010.5 |
| 20260509191520 | 60 | 297 | 0.0 | 3.0 | 0.00 | 0.19 | 0.19 | 73 | 1010.6 |
| 20260509191008 | 60 | 218 | 0.0 | 3.0 | 0.00 | 0.19 | 0.19 | 76 | 1010.7 |
| 20260509190008 | 59 | 93 | 1.0 | 5.0 | 0.00 | 0.19 | 0.19 | 78 | 1010.8 |
| 20260509185503 | 59 | 165 | 1.0 | 5.0 | 0.00 | 0.19 | 0.19 | 77 | 1011.0 |
| 20260509185003 | 59 | 117 | 0.0 | 5.0 | 0.00 | 0.19 | 0.19 | 79 | 1011.1 |
| 20260509184527 | 58 | 152 | 1.0 | 5.0 | 0.00 | 0.19 | 0.19 | 79 | 1011.3 |
| 20260509183012 | 58 | 212 | 2.0 | 5.0 | 0.00 | 0.19 | 0.19 | 80 | 1011.2 |
| 20260509181015 | 56 | 42 | 1.0 | 3.0 | 0.00 | 0.19 | 0.19 | 84 | 1011.1 |
| 20260509180024 | 56 | 105 | 0.0 | 2.0 | 0.00 | 0.19 | 0.19 | 86 | 1011.0 |
| 20260509174524 | 55 | 139 | 0.0 | 1.0 | 0.00 | 0.19 | 0.19 | 85 | 1011.3 |
| 20260509174008 | 55 | 144 | 0.0 | 1.0 | 0.00 | 0.19 | 0.19 | 86 | 1011.4 |
| 20260509172505 | 55 | 211 | 0.0 | 2.0 | 0.00 | 0.19 | 0.19 | 87 | 1011.8 |
| 20260509171520 | 55 | 221 | 0.0 | 4.0 | 0.00 | 0.19 | 0.19 | 87 | 1011.8 |
| 20260509170507 | 55 | 225 | 1.0 | 4.0 | 0.01 | 0.19 | 0.19 | 86 | 1012.0 |
| 20260509170032 | 54 | 218 | 1.0 | 4.0 | 0.02 | 0.19 | 0.19 | 87 | 1011.9 |
| 20260509165506 | 54 | 198 | 1.0 | 4.0 | 0.02 | 0.19 | 0.19 | 87 | 1012.0 |
| 20260509164526 | 54 | 181 | 3.0 | 6.0 | 0.04 | 0.19 | 0.19 | 87 | 1011.9 |
| 20260509164014 | 54 | 191 | 2.0 | 5.0 | 0.05 | 0.19 | 0.19 | 88 | 1011.8 |
| 20260509163010 | 54 | 231 | 1.0 | 4.0 | 0.08 | 0.19 | 0.19 | 88 | 1011.6 |
| 20260509162503 | 53 | 169 | 1.0 | 3.0 | 0.09 | 0.19 | 0.19 | 88 | 1011.4 |
| 20260509160504 | 53 | 18 | 3.0 | 7.0 | 0.14 | 0.18 | 0.18 | 86 | 1011.3 |
| 20260509155505 | 53 | 110 | 1.0 | 4.0 | 0.14 | 0.17 | 0.17 | 86 | 1011.5 |
| 20260509154007 | 53 | 228 | 0.0 | 2.0 | 0.12 | 0.14 | 0.14 | 83 | 1012.3 |
| 20260509150503 | 54 | 234 | 1.0 | 2.0 | 0.04 | 0.04 | 0.04 | 80 | 1012.5 |
| 20260509150015 | 54 | 209 | 1.0 | 2.0 | 0.04 | 0.04 | 0.04 | 80 | 1012.4 |
| 20260509145503 | 55 | 222 | 1.0 | 2.0 | 0.03 | 0.03 | 0.03 | 79 | 1012.4 |
| 20260509145008 | 55 | 272 | 1.0 | 3.0 | 0.03 | 0.03 | 0.03 | 79 | 1012.4 |
| 20260509144006 | 55 | 162 | 1.0 | 3.0 | 0.02 | 0.02 | 0.02 | 78 | 1012.2 |
| 20260509143508 | 55 | 165 | 2.0 | 3.0 | 0.02 | 0.02 | 0.02 | 75 | 1012.2 |
| 20260509142506 | 55 | 176 | 1.0 | 3.0 | 0.00 | 0.00 | 0.00 | 75 | 1012.1 |
| 20260509142012 | 56 | 218 | 0.0 | 3.0 | 0.00 | 0.00 | 0.00 | 75 | 1012.1 |
| 20260509141535 | 56 | 156 | 1.0 | 5.0 | 0.00 | 0.00 | 0.00 | 74 | 1012.1 |
| 20260509140026 | 56 | 152 | 2.0 | 4.0 | 0.00 | 0.00 | 0.00 | 71 | 1011.9 |
| 20260509135506 | 56 | 169 | 0.0 | 4.0 | 0.00 | 0.00 | 0.00 | 72 | 1011.9 |
| 20260509135007 | 56 | 183 | 2.0 | 4.0 | 0.00 | 0.00 | 0.00 | 73 | 1011.9 |
| 20260509134518 | 55 | 258 | 0.0 | 6.0 | 0.00 | 0.00 | 0.00 | 74 | 1011.9 |
| 20260509134001 | 55 | 212 | 1.0 | 6.0 | 0.00 | 0.00 | 0.00 | 74 | 1011.8 |
| 20260509132504 | 55 | 174 | 2.0 | 5.0 | 0.00 | 0.00 | 0.00 | 76 | 1011.8 |
| 20260509132002 | 55 | 202 | 1.0 | 4.0 | 0.00 | 0.00 | 0.00 | 76 | 1011.8 |
| 20260509131004 | 54 | 109 | 3.0 | 4.0 | 0.00 | 0.00 | 0.00 | 75 | 1011.7 |
| 20260509130504 | 54 | 137 | 2.0 | 3.0 | 0.00 | 0.00 | 0.00 | 77 | 1011.5 |
| 20260509130008 | 54 | 141 | 1.0 | 4.0 | 0.00 | 0.00 | 0.00 | 76 | 1011.4 |
| 20260509125504 | 54 | 60 | 2.0 | 5.0 | 0.00 | 0.00 | 0.00 | 77 | 1011.1 |
| 20260509125008 | 54 | 64 | 3.0 | 6.0 | 0.00 | 0.00 | 0.00 | 77 | 1011.1 |
| 20260509124529 | 54 | 65 | 3.0 | 6.0 | 0.00 | 0.00 | 0.00 | 77 | 1011.2 |
| 20260509124004 | 54 | 56 | 3.0 | 5.0 | 0.00 | 0.00 | 0.00 | 77 | 1011.1 |
| 20260509123504 | 54 | 56 | 2.0 | 4.0 | 0.00 | 0.00 | 0.00 | 76 | 1011.4 |
| 20260509121004 | 54 | 266 | 1.0 | 2.0 | 0.00 | 0.00 | 0.00 | 74 | 1011.8 |
| 20260509120507 | 54 | 267 | 0.0 | 1.0 | 0.00 | 0.00 | 0.00 | 73 | 1011.7 |
| 20260509115505 | 54 | 155 | 0.0 | 2.0 | 0.00 | 0.00 | 0.00 | 73 | 1011.6 |
| 20260509115004 | 54 | 62 | 1.0 | 2.0 | 0.00 | 0.00 | 0.00 | 72 | 1011.4 |
| 20260509114524 | 54 | 63 | 1.0 | 2.0 | 0.00 | 0.00 | 0.00 | 72 | 1011.3 |
| 20260509114006 | 54 | 36 | 0.0 | 2.0 | 0.00 | 0.00 | 0.00 | 72 | 1011.4 |
| 20260509113504 | 54 | 266 | 0.0 | 2.0 | 0.00 | 0.00 | 0.00 | 72 | 1011.5 |
| 20260509112505 | 54 | 61 | 2.0 | 2.0 | 0.00 | 0.00 | 0.00 | 73 | 1011.1 |
| 20260509112007 | 54 | 269 | 0.0 | 2.0 | 0.00 | 0.00 | 0.00 | 73 | 1011.3 |
| 20260509111524 | 53 | 269 | 1.0 | 2.0 | 0.00 | 0.00 | 0.00 | 73 | 1011.3 |
| 20260509111007 | 53 | 83 | 1.0 | 2.0 | 0.00 | 0.00 | 0.00 | 73 | 1011.1 |
| 20260509110504 | 53 | 63 | 2.0 | 3.0 | 0.00 | 0.00 | 0.00 | 73 | 1011.0 |
| 20260509110018 | 53 | 250 | 1.0 | 3.0 | 0.00 | 0.00 | 0.00 | 73 | 1011.4 |
| 20260509105505 | 53 | 54 | 1.0 | 3.0 | 0.00 | 0.00 | 0.00 | 73 | 1010.9 |
| 20260509105005 | 53 | 72 | 1.0 | 5.0 | 0.00 | 0.00 | 0.00 | 73 | 1010.8 |
| 20260509104510 | 53 | 110 | 3.0 | 5.0 | 0.00 | 0.00 | 0.00 | 73 | 1010.9 |
| 20260509104004 | 53 | 64 | 2.0 | 3.0 | 0.00 | 0.00 | 0.00 | 72 | 1010.9 |
| 20260509103503 | 53 | 65 | 0.0 | 2.0 | 0.00 | 0.00 | 0.00 | 72 | 1011.0 |
| 20260509103017 | 53 | 58 | 1.0 | 2.0 | 0.00 | 0.00 | 0.00 | 72 | 1011.0 |
| 20260509102506 | 53 | 344 | 1.0 | 3.0 | 0.00 | 0.00 | 0.00 | 72 | 1011.1 |
| 20260509102009 | 53 | 37 | 1.0 | 3.0 | 0.00 | 0.00 | 0.00 | 72 | 1010.9 |
| 20260509101523 | 53 | 62 | 2.0 | 3.0 | 0.00 | 0.00 | 0.00 | 71 | 1010.9 |
| 20260509101005 | 53 | 52 | 1.0 | 2.0 | 0.00 | 0.00 | 0.00 | 71 | 1010.9 |
| 20260509100507 | 53 | 68 | 1.0 | 3.0 | 0.00 | 0.00 | 0.00 | 71 | 1010.8 |
| 20260509100028 | 53 | 58 | 1.0 | 3.0 | 0.00 | 0.00 | 0.00 | 71 | 1010.9 |
| 20260509095507 | 54 | 53 | 2.0 | 3.0 | 0.00 | 0.00 | 0.00 | 70 | 1010.8 |
| 20260509095005 | 54 | 94 | 0.0 | 2.0 | 0.00 | 0.00 | 0.00 | 70 | 1010.8 |
| 20260509094506 | 54 | 108 | 1.0 | 2.0 | 0.00 | 0.00 | 0.00 | 70 | 1010.8 |
| 20260509094001 | 54 | 108 | 0.0 | 3.0 | 0.00 | 0.00 | 0.00 | 70 | 1010.8 |
| 20260509093504 | 54 | 78 | 1.0 | 3.0 | 0.00 | 0.00 | 0.00 | 69 | 1010.9 |
| 20260509093019 | 54 | 39 | 1.0 | 3.0 | 0.00 | 0.00 | 0.00 | 69 | 1011.0 |
| 20260509092504 | 54 | 75 | 1.0 | 3.0 | 0.00 | 0.00 | 0.00 | 69 | 1010.9 |
| 20260509092004 | 54 | 59 | 0.0 | 4.0 | 0.00 | 0.00 | 0.00 | 69 | 1011.0 |
| 20260509091520 | 54 | 63 | 2.0 | 6.0 | 0.00 | 0.00 | 0.00 | 69 | 1011.0 |
| 20260509091008 | 54 | 56 | 2.0 | 6.0 | 0.00 | 0.00 | 0.00 | 69 | 1010.9 |
| 20260509090507 | 54 | 105 | 2.0 | 5.0 | 0.00 | 0.00 | 0.00 | 69 | 1010.9 |
| 20260509090026 | 54 | 103 | 3.0 | 5.0 | 0.00 | 0.00 | 0.00 | 69 | 1011.0 |
| 20260509085507 | 54 | 90 | 1.0 | 3.0 | 0.00 | 0.00 | 0.00 | 68 | 1010.9 |
| 20260509085007 | 54 | 84 | 1.0 | 4.0 | 0.00 | 0.00 | 0.00 | 68 | 1010.9 |
| 20260509084523 | 54 | 121 | 0.0 | 4.0 | 0.00 | 0.00 | 0.00 | 68 | 1011.0 |
| 20260509084007 | 54 | 153 | 2.0 | 4.0 | 0.00 | 0.00 | 0.00 | 68 | 1011.1 |
| 20260509083503 | 54 | 59 | 1.0 | 5.0 | 0.00 | 0.00 | 0.00 | 67 | 1011.1 |
| 20260509083007 | 54 | 112 | 2.0 | 5.0 | 0.00 | 0.00 | 0.00 | 67 | 1011.2 |
| 20260509082506 | 55 | 122 | 1.0 | 6.0 | 0.00 | 0.00 | 0.00 | 66 | 1011.1 |
| 20260509082007 | 55 | 109 | 1.0 | 6.0 | 0.00 | 0.00 | 0.00 | 66 | 1011.1 |
| 20260509081531 | 55 | 116 | 2.0 | 6.0 | 0.00 | 0.00 | 0.00 | 66 | 1011.1 |
| 20260509081010 | 55 | 97 | 0.0 | 4.0 | 0.00 | 0.00 | 0.00 | 66 | 1011.1 |
| 20260509080507 | 55 | 62 | 1.0 | 4.0 | 0.00 | 0.00 | 0.00 | 66 | 1011.1 |
| 20260509080017 | 55 | 79 | 1.0 | 4.0 | 0.00 | 0.00 | 0.00 | 66 | 1011.3 |
| 20260509075510 | 54 | 110 | 2.0 | 3.0 | 0.00 | 0.00 | 0.00 | 66 | 1011.3 |
| 20260509075007 | 54 | 12 | 0.0 | 1.0 | 0.00 | 0.00 | 0.00 | 66 | 1011.3 |
| 20260509074524 | 54 | 12 | 0.0 | 1.0 | 0.00 | 0.00 | 0.00 | 66 | 1011.3 |
| 20260509074008 | 54 | 56 | 0.0 | 1.0 | 0.00 | 0.00 | 0.00 | 66 | 1011.3 |
| 20260509073507 | 54 | 72 | 0.0 | 1.0 | 0.00 | 0.00 | 0.00 | 66 | 1011.3 |
| 20260509073025 | 54 | 93 | 0.0 | 1.0 | 0.00 | 0.00 | 0.00 | 65 | 1011.3 |
| 20260509072515 | 54 | 94 | 0.0 | 2.0 | 0.00 | 0.00 | 0.00 | 65 | 1011.3 |
| 20260509072013 | 54 | 110 | 1.0 | 4.0 | 0.00 | 0.00 | 0.00 | 65 | 1011.4 |
| 20260509071513 | 54 | 64 | 1.0 | 4.0 | 0.00 | 0.00 | 0.00 | 66 | 1011.4 |
| 20260509071003 | 54 | 34 | 1.0 | 3.0 | 0.00 | 0.00 | 0.00 | 66 | 1011.5 |
| 20260509070503 | 54 | 115 | 1.0 | 3.0 | 0.00 | 0.00 | 0.00 | 66 | 1011.6 |
| 20260509070014 | 54 | 34 | 1.0 | 3.0 | 0.00 | 0.00 | 0.00 | 66 | 1011.6 |
| 20260509065502 | 54 | 58 | 2.0 | 3.0 | 0.00 | 0.00 | 0.00 | 66 | 1011.5 |
| 20260509065002 | 54 | 48 | 1.0 | 3.0 | 0.00 | 0.00 | 0.00 | 66 | 1011.6 |
| 20260509064504 | 54 | 60 | 1.0 | 3.0 | 0.00 | 0.00 | 0.00 | 66 | 1011.6 |
| 20260509064003 | 54 | 66 | 1.0 | 2.0 | 0.00 | 0.00 | 0.00 | 66 | 1011.7 |
| 20260509063504 | 55 | 53 | 0.0 | 2.0 | 0.00 | 0.00 | 0.00 | 66 | 1011.8 |
| 20260509063005 | 55 | 84 | 0.0 | 3.0 | 0.00 | 0.00 | 0.00 | 66 | 1011.8 |
| 20260509062503 | 55 | 72 | 0.0 | 3.0 | 0.00 | 0.00 | 0.00 | 66 | 1011.8 |
| 20260509062003 | 55 | 75 | 0.0 | 2.0 | 0.00 | 0.00 | 0.00 | 66 | 1011.8 |
| 20260509061508 | 55 | 39 | 0.0 | 1.0 | 0.00 | 0.00 | 0.00 | 66 | 1011.9 |
| 20260509061006 | 55 | 39 | 0.0 | 3.0 | 0.00 | 0.00 | 0.00 | 66 | 1011.8 |
| 20260509060505 | 55 | 56 | 1.0 | 3.0 | 0.00 | 0.00 | 0.00 | 66 | 1011.7 |
| 20260509060015 | 55 | 25 | 1.0 | 2.0 | 0.00 | 0.00 | 0.00 | 66 | 1011.8 |
| 20260509055504 | 55 | 4 | 1.0 | 2.0 | 0.00 | 0.00 | 0.00 | 66 | 1011.9 |
| 20260509055006 | 55 | 31 | 0.0 | 4.0 | 0.00 | 0.00 | 0.00 | 66 | 1011.9 |
| 20260509054003 | 55 | 53 | 2.0 | 4.0 | 0.00 | 0.00 | 0.00 | 65 | 1011.8 |
| 20260509053503 | 55 | 41 | 3.0 | 4.0 | 0.00 | 0.00 | 0.00 | 65 | 1011.9 |
| 20260509053008 | 56 | 53 | 2.0 | 4.0 | 0.00 | 0.00 | 0.00 | 65 | 1011.9 |
| 20260509052504 | 56 | 61 | 1.0 | 5.0 | 0.00 | 0.00 | 0.00 | 65 | 1011.9 |
| 20260509052003 | 56 | 64 | 2.0 | 5.0 | 0.00 | 0.00 | 0.00 | 64 | 1012.0 |
| 20260509051505 | 56 | 105 | 1.0 | 3.0 | 0.00 | 0.00 | 0.00 | 65 | 1012.0 |
| 20260509051004 | 56 | 56 | 2.0 | 4.0 | 0.00 | 0.00 | 0.00 | 64 | 1012.1 |
| 20260509050504 | 56 | 60 | 2.0 | 4.0 | 0.00 | 0.00 | 0.00 | 64 | 1012.2 |
| 20260509050032 | 56 | 60 | 1.0 | 4.0 | 0.00 | 0.00 | 0.00 | 65 | 1012.2 |
| 20260509045504 | 56 | 60 | 2.0 | 4.0 | 0.00 | 0.00 | 0.00 | 65 | 1012.2 |
| 20260509045004 | 56 | 70 | 2.0 | 3.0 | 0.00 | 0.00 | 0.00 | 65 | 1012.3 |
| 20260509044517 | 56 | 70 | 1.0 | 3.0 | 0.00 | 0.00 | 0.00 | 65 | 1012.2 |
| 20260509044006 | 56 | 32 | 2.0 | 3.0 | 0.00 | 0.00 | 0.00 | 65 | 1012.3 |
| 20260509043504 | 56 | 44 | 2.0 | 3.0 | 0.00 | 0.00 | 0.00 | 65 | 1012.3 |
| 20260509043025 | 56 | 68 | 2.0 | 3.0 | 0.00 | 0.00 | 0.00 | 65 | 1012.2 |
| 20260509042503 | 56 | 72 | 0.0 | 1.0 | 0.00 | 0.00 | 0.00 | 64 | 1012.2 |
| 20260509042005 | 57 | 56 | 0.0 | 4.0 | 0.00 | 0.00 | 0.00 | 64 | 1012.1 |
| 20260509041507 | 57 | 50 | 2.0 | 4.0 | 0.00 | 0.00 | 0.00 | 63 | 1012.2 |
| 20260509041004 | 57 | 41 | 1.0 | 3.0 | 0.00 | 0.00 | 0.00 | 62 | 1012.2 |
| 20260509040506 | 58 | 53 | 2.0 | 3.0 | 0.00 | 0.00 | 0.00 | 60 | 1012.2 |
| 20260509040005 | 58 | 76 | 1.0 | 3.0 | 0.00 | 0.00 | 0.00 | 60 | 1012.2 |
| 20260509035506 | 58 | 88 | 1.0 | 3.0 | 0.00 | 0.00 | 0.00 | 59 | 1012.3 |
| 20260509035008 | 58 | 66 | 2.0 | 3.0 | 0.00 | 0.00 | 0.00 | 59 | 1012.3 |
| 20260509034512 | 58 | 50 | 1.0 | 2.0 | 0.00 | 0.00 | 0.00 | 60 | 1012.5 |
| 20260509034011 | 58 | 66 | 0.0 | 1.0 | 0.00 | 0.00 | 0.00 | 61 | 1012.5 |
| 20260509033505 | 59 | 139 | 0.0 | 3.0 | 0.00 | 0.00 | 0.00 | 60 | 1012.6 |
| 20260509033014 | 59 | 140 | 1.0 | 3.0 | 0.00 | 0.00 | 0.00 | 60 | 1012.7 |
| 20260509032507 | 59 | 143 | 0.0 | 3.0 | 0.00 | 0.00 | 0.00 | 62 | 1012.7 |
| 20260509032007 | 59 | 99 | 0.0 | 3.0 | 0.00 | 0.00 | 0.00 | 62 | 1012.5 |
| 20260509031528 | 59 | 65 | 1.0 | 2.0 | 0.00 | 0.00 | 0.00 | 62 | 1012.5 |
| 20260509031003 | 59 | 60 | 1.0 | 2.0 | 0.00 | 0.00 | 0.00 | 62 | 1012.6 |
| 20260509030503 | 59 | 153 | 0.0 | 1.0 | 0.00 | 0.00 | 0.00 | 60 | 1012.7 |
| 20260509030015 | 59 | 197 | 0.0 | 3.0 | 0.00 | 0.00 | 0.00 | 60 | 1012.7 |
| 20260509025503 | 59 | 197 | 0.0 | 3.0 | 0.00 | 0.00 | 0.00 | 60 | 1012.7 |
| 20260509025003 | 59 | 193 | 1.0 | 3.0 | 0.00 | 0.00 | 0.00 | 61 | 1012.7 |
| 20260509024508 | 59 | 147 | 0.0 | 4.0 | 0.00 | 0.00 | 0.00 | 64 | 1012.6 |
| 20260509024004 | 59 | 211 | 1.0 | 4.0 | 0.00 | 0.00 | 0.00 | 64 | 1012.5 |
| 20260509023505 | 59 | 185 | 1.0 | 2.0 | 0.00 | 0.00 | 0.00 | 62 | 1012.5 |
| 20260509023024 | 58 | 256 | 0.0 | 1.0 | 0.00 | 0.00 | 0.00 | 58 | 1012.3 |
| 20260509022507 | 58 | 84 | 0.0 | 1.0 | 0.00 | 0.00 | 0.00 | 58 | 1012.3 |
| 20260509022010 | 58 | 86 | 0.0 | 1.0 | 0.00 | 0.00 | 0.00 | 58 | 1012.2 |
| 20260509021517 | 59 | 86 | 0.0 | 1.0 | 0.00 | 0.00 | 0.00 | 58 | 1012.2 |
| 20260509021007 | 59 | 86 | 0.0 | 2.0 | 0.00 | 0.00 | 0.00 | 58 | 1012.1 |
| 20260509020506 | 59 | 86 | 0.0 | 2.0 | 0.00 | 0.00 | 0.00 | 58 | 1012.1 |
| 20260509020020 | 59 | 56 | 0.0 | 2.0 | 0.00 | 0.00 | 0.00 | 57 | 1012.2 |
| 20260509015503 | 59 | 46 | 1.0 | 3.0 | 0.00 | 0.00 | 0.00 | 57 | 1012.2 |
| 20260509015003 | 59 | 41 | 2.0 | 3.0 | 0.00 | 0.00 | 0.00 | 57 | 1012.2 |
| 20260509014508 | 59 | 32 | 1.0 | 3.0 | 0.00 | 0.00 | 0.00 | 57 | 1012.3 |
| 20260509014002 | 59 | 58 | 0.0 | 3.0 | 0.00 | 0.00 | 0.00 | 57 | 1012.2 |
| 20260509013503 | 59 | 44 | 2.0 | 3.0 | 0.00 | 0.00 | 0.00 | 57 | 1012.2 |
| 20260509013012 | 59 | 103 | 0.0 | 1.0 | 0.00 | 0.00 | 0.00 | 57 | 1012.2 |
| 20260509012503 | 59 | 103 | 0.0 | 1.0 | 0.00 | 0.00 | 0.00 | 56 | 1012.2 |
| 20260509012007 | 59 | 103 | 0.0 | 1.0 | 0.00 | 0.00 | 0.00 | 57 | 1012.1 |
| 20260509011516 | 59 | 103 | 0.0 | 1.0 | 0.00 | 0.00 | 0.00 | 57 | 1012.2 |
| 20260509011006 | 59 | 103 | 0.0 | 2.0 | 0.00 | 0.00 | 0.00 | 57 | 1012.0 |
| 20260509010507 | 59 | 94 | 1.0 | 2.0 | 0.00 | 0.00 | 0.00 | 56 | 1012.0 |
| 20260509010021 | 59 | 89 | 1.0 | 2.0 | 0.00 | 0.00 | 0.00 | 56 | 1012.1 |
| 20260509005508 | 59 | 78 | 1.0 | 2.0 | 0.00 | 0.00 | 0.00 | 56 | 1012.0 |
| 20260509005010 | 59 | 82 | 0.0 | 1.0 | 0.00 | 0.00 | 0.00 | 56 | 1012.0 |
| 20260509004527 | 60 | 83 | 0.0 | 3.0 | 0.00 | 0.00 | 0.00 | 56 | 1012.0 |
| 20260509004002 | 60 | 54 | 1.0 | 3.0 | 0.00 | 0.00 | 0.00 | 56 | 1012.0 |
| 20260509003503 | 60 | 61 | 2.0 | 3.0 | 0.00 | 0.00 | 0.00 | 55 | 1011.9 |
| 20260509003008 | 60 | 55 | 0.0 | 1.0 | 0.00 | 0.00 | 0.00 | 54 | 1011.9 |
| 20260509002503 | 60 | 55 | 0.0 | 2.0 | 0.00 | 0.00 | 0.00 | 54 | 1011.9 |
| 20260509002010 | 60 | 55 | 0.0 | 2.0 | 0.00 | 0.00 | 0.00 | 54 | 1011.9 |
| 20260509001526 | 60 | 27 | 0.0 | 4.0 | 0.00 | 0.00 | 0.00 | 54 | 1011.8 |
| 20260509001005 | 60 | 67 | 2.0 | 4.0 | 0.00 | 0.00 | 0.00 | 53 | 1011.8 |
| 20260509000509 | 60 | 72 | 1.0 | 3.0 | 0.00 | 0.00 | 0.00 | 53 | 1011.8 |